Regional Weather Roundup
Issued by NWS

Home | Current Version | Previous Version | Graphics & Text | Print | Product List | Glossary On
Versions: 1 2 3 4 5 6 7 8 9 10 11 12 13 14 15 16 17 18 19 20 21 22 23 24 25 26 27 28 29 30 31 32 33 34 35 36 37 38 39 40 41 42 43 44 45 46 47 48 49 50
000
ASUS45 KBOI 021910
RWRID
WEATHER ROUNDUP FOR IDAHO
NATIONAL WEATHER SERVICE BOISE ID
1200 PM MST MON MAR 02 2015

NOTE: "FAIR" INDICATES FEW OR NO CLOUDS BELOW 12000 FEET
WITH NO SIGNIFICANT WEATHER AND/OR OBSTRUCTIONS TO VISIBILITY

IDZ012-014-022000-
SOUTHWEST IDAHO


CITY           SKY/WX    TMP DP  RH WIND       PRES   REMARKS
BOISE          SUNNY     44  19  36 N3        29.80F
CALDWELL       SUNNY     41  21  45 SW5       29.84F
MOUNTAIN HOME  CLOUDY    43  15  31 SE12      29.79F
$$

IDZ016-017-022000-
SOUTHCENTRAL IDAHO


CITY           SKY/WX    TMP DP  RH WIND       PRES   REMARKS
BURLEY         MOSUNNY   41  17  38 E10       29.73F
JEROME         MOSUNNY   45   9  23 NE10      29.76F
TWIN FALLS     MOSUNNY   44  16  32 N5        29.75F
$$

IDZ019>023-022000-
SOUTHEAST IDAHO


CITY           SKY/WX    TMP DP  RH WIND       PRES   REMARKS
IDAHO FALLS    MOSUNNY   42  19  39 N10       29.76F
POCATELLO      PTSUNNY   36  18  48 CALM      29.76S
REXBURG        SUNNY     39  17  41 VRB3      29.76F
$$

IDZ006-010-011-018-031-032-022000-
CENTRAL IDAHO MOUNTAINS


CITY           SKY/WX    TMP DP  RH WIND       PRES   REMARKS
MCCALL         NOT AVBL
STANLEY        NOT AVBL
SALMON         SUNNY     34   9  35 CALM      29.80F
CHALLIS        SUNNY     35  13  40 CALM      29.75F
$$

IDZ002-004-006-007-026-022000-
NORTHERN IDAHO


CITY           SKY/WX    TMP DP  RH WIND       PRES   REMARKS
LEWISTON       CLOUDY    39  26  59 N3        29.90F
LOWELL           N/A     39  18  42 CALM      29.92F
COEUR D`ALENE  CLOUDY    36  18  48 N10       29.89S WCI  28
MULLAN PASS    CLOUDY    24  11  57 VRB5      29.75S WCI  18
$$


USA.gov is the U.S. government's official web portal to all federal, state and local government web resources and services.